This demonstration page uses our WeatherBlox Daily Observations layout. Learn more.

Left ArrowRight Arrow

47.50024, -111.30081

Hourly Observations for May 14, 2021

Temp ( °F °C ) Dew Point ( °F °C ) Humidity (%) Winds ( mph kmh ) Pressure ( in mb ) Visibility ( mi km ) Precip ( " mm )
12:53 am 00:53 Mostly Cloudy 46 7.8 38 3.3 73 73 WNW 8 13 30.13 1020 10 16 0.00 0.00
1:53 am 01:53 Cloudy with Light Rain 50 10 41 5 71 71 W 14 22 30.11 1020 10 16 0.00 0.00
2:53 am 02:53 Cloudy 48 8.9 41 5 77 77 W 10 17 30.12 1020 10 16 0.00 0.00
3:53 am 03:53 Mostly Clear 44 6.7 40 4.4 85 85 SW 8 13 30.13 1020 10 16 0.00 0.00
4:53 am 04:53 Mostly Clear 42 5.6 38 3.3 85 85 NNW 8 13 30.14 1021 10 16 0.00 0.00
5:53 am 05:53 Sunny 40 4.4 36 2.2 86 86 SSW 3 6 30.14 1021 10 16 0.00 0.00
6:53 am 06:53 Sunny 44 6.7 40 4.4 85 85 Calm 30.14 1021 10 16 0.00 0.00
7:53 am 07:53 Sunny 50 10 40 4.4 68 68 WNW 3 6 30.15 1021 10 16 0.00 0.00
8:53 am 08:53 Sunny 52 11.1 40 4.4 64 64 Calm 30.14 1021 10 16 0.00 0.00
9:53 am 09:53 Sunny 56 13.3 41 5 57 57 VRB 3 6 30.15 1021 10 16 0.00 0.00
10:53 am 10:53 Sunny 58 14.4 39 3.9 50 50 VRB 5 7 30.12 1020 10 16 0.00 0.00
11:53 am 11:53 Sunny 61 16.1 38 3.3 43 43 NNE 6 9 30.12 1020 10 16 0.00 0.00
12:53 pm 12:53 Sunny 63 17.2 37 2.8 38 38 NE 8 13 30.11 1020 10 16 0.00 0.00
1:53 pm 13:53 Sunny 63 17.2 34 1.1 34 34 ESE 7 11 30.08 1019 10 16 0.00 0.00
2:53 pm 14:53 Sunny 64 17.8 36 2.2 35 35 Calm 30.06 1018 10 16 0.00 0.00
3:53 pm 15:53 Sunny 66 18.9 34 1.1 30 30 ENE 10 17 30.06 1018 10 16 0.00 0.00
4:53 pm 16:53 Mostly Sunny 67 19.4 34 1.1 30 30 NNE 9 15 30.04 1017 10 16 0.00 0.00
5:53 pm 17:53 Mostly Sunny 65 18.3 34 1.1 32 32 NNE 9 15 30.05 1018 10 16 0.00 0.00
6:53 pm 18:53 Sunny 65 18.3 33 0.6 31 31 NNE 10 17 30.03 1017 10 16 0.00 0.00
7:53 pm 19:53 Sunny 62 16.7 34 1.1 35 35 E 10 17 30.02 1017 10 16 0.00 0.00
8:53 pm 20:53 Sunny 57 13.9 36 2.2 45 45 E 8 13 30.04 1017 10 16 0.00 0.00
9:53 pm 21:53 Clear 53 11.7 36 2.2 52 52 E 9 15 30.05 1018 10 16 0.00 0.00
10:53 pm 22:53 Clear 49 9.4 36 2.2 61 61 E 7 11 30.05 1018 10 16 0.00 0.00
11:53 pm 23:53 Clear 48 8.9 36 2.2 63 63 ESE 6 9 30.04 1017 10 16 0.00 0.00

Powered by AerisWeather